Flag for Canada Weather past 2 weeks in Lloydminster, Alberta, Canada

Now
54 °F

Passing clouds.


Feels Like: 52 °F
Forecast: 49 / 60 °F
Wind: 6 mph from Northwest

Location: Lloydminister

Current Time: Aug 21, 2014 at 12:20:19 AM

Latest Report: Aug 20, 2014 at 11:00 PM


Visibility: 9 mi

Pressure: 29.98 "Hg

Humidity: 88%

Dew point: 50 °F

Location of LloydminsterLocation

Historic Weather in Lloydminster — Graph

°F

Lloydminster temperature yesterday

Maximum temperature yesterday: 70 °F (at 1:00 PM)
Minimum temperature yesterday: 54 °F (at 7:00 AM)
Average temperature yesterday: 61 °F

Past Weeks' High & Low Weather Summary

 TemperatureHumidityPressure
High82 °F (Aug 12, 3:00 PM)100% (Aug 5, 11:00 PM)30.25 "Hg (Aug 5, 11:00 PM)
Low52 °F (Aug 9, 4:00 AM)32% (Aug 7, 2:00 PM)29.66 "Hg (Aug 19, 6:00 PM)
Average66 °F76%29.95 "Hg
* Reported Aug 5 11:00 PM — Aug 20 11:00 PM, Lloydminster, Weather by CustomWeather, © 2014

Note: Actual official high and low records may vary slightly from our data, if they occured in-between our weather recording intervals... More about our weather records

Advertising

Lloydminster weather history for previous 24 hours

 ConditionsComfort  
Time TempWeatherWind HumidityBarometerVisibility
11:00 PM
Aug 20
54 °FPassing clouds.6 mph88%29.98 "Hg9 mi
10:00 PM55 °FPassing clouds.6 mph82%29.96 "Hg9 mi
9:00 PM59 °FPartly sunny.8 mph72%29.95 "Hg15 mi
8:00 PM63 °FPartly sunny.5 mph73%29.92 "Hg15 mi
7:00 PM63 °FBroken clouds.8 mph73%29.91 "Hg15 mi
6:00 PM64 °FBroken clouds.15 mph68%29.90 "Hg15 mi
5:00 PM64 °FPartly sunny.15 mph68%29.88 "Hg15 mi
4:00 PM66 °FPartly sunny.15 mph60%29.86 "Hg15 mi
3:00 PM66 °FPartly sunny.15 mph60%29.84 "Hg15 mi
2:00 PM70 °FBroken clouds.15 mph53%29.82 "Hg15 mi
1:00 PM70 °FBroken clouds.15 mph53%29.80 "Hg15 mi
12:00 PM68 °FBroken clouds.13 mph60%29.79 "Hg15 mi
11:00 AM66 °FPassing clouds.15 mph64%29.78 "Hg15 mi
10:00 AM63 °FPassing clouds.8 mph77%29.78 "Hg15 mi
9:00 AM59 °FPassing clouds.12 mph88%29.77 "Hg15 mi
8:00 AM57 °FScattered clouds.9 mph88%29.75 "Hg15 mi
7:00 AM54 °FPassing clouds.9 mph94%29.74 "Hg15 mi
6:00 AM55 °FPassing clouds.9 mph94%29.72 "Hg9 mi
5:00 AM55 °FPassing clouds.10 mph88%29.70 "Hg9 mi
4:00 AM57 °FMostly cloudy.7 mph88%29.69 "Hg9 mi
3:00 AM59 °FOvercast.2 mph82%29.68 "Hg9 mi
2:00 AM61 °FOvercast.7 mph77%29.68 "Hg9 mi
1:00 AM61 °FPassing clouds.8 mph77%29.68 "Hg9 mi
12:00 AM61 °FOvercast.7 mph77%29.67 "Hg9 mi
Weather by CustomWeather, © 2014

See weather overviewHow to use our weather pages